Location: Lafig�re
(44.4503°N, 4.0357°E)
Time: 15:25:28
(UTC+00:00)

Vanguard 2 Rocket - Pass Details

Date: 02 February 2021
Orbit: 554 x 3325 km, 32.9° (Epoch: 06 March)

Event Time Altitude Azimuth Distance (km) Brightness Sun altitude
Rises 15:27:00 0° 266° (W) 7,040 12.4 12.6°
Reaches altitude 10° 15:32:25 10° 262° (W) 5,738 12.2 11.8°
Maximum altitude 15:47:16 45° 198° (SSW) 2,619 10.0 9.7°
Drops below altitude 10° 15:56:14 10° 129° (SE) 3,534 9.8 8.4°
Sets 15:58:45 0° 122° (ESE) 4,210 10.1 8.0°
